Home > Weather > Allentown > Past weeks

Flag for USA Past Weather in Allentown, Pennsylvania, USA — Yesterday and Last 2 Weeks

Now
68 °F

Sunny.


Feels Like: 68 °F
Forecast: 60 / 82 °F
Wind: 3 mph from Northwest

Location: Lehigh Valley International Airport

Current Time: Jun 30, 2016 at 8:31:07 AM

Latest Report: Jun 30, 2016 at 7:51 AM


Visibility: 10 mi

Pressure: 30.03 "Hg

Humidity: 73%

Dew Point: 59 °F

Location of AllentownLocation

Past Weather in Allentown — Graph

°F

Allentown Temperature Yesterday

Maximum temperature yesterday: 81 °F (at 3:51 PM)
Minimum temperature yesterday: 63 °F (at 5:58 AM)
Average temperature yesterday: 71 °F

High & Low Weather Summary for the Past Weeks

 TemperatureHumidityPressure
High91 °F (Jun 20, 2:51 PM)94% (Jun 29, 2:59 AM)30.32 "Hg (Jun 29, 2:59 AM)
Low54 °F (Jun 18, 4:51 AM)29% (Jun 19, 3:51 PM)29.74 "Hg (Jun 16, 4:51 PM)
Average74 °F61%29.99 "Hg
* Reported Jun 15 6:51 AM — Jun 30 6:51 AM, Allentown, Weather by CustomWeather, © 2016

Note: Actual official high and low records may vary slightly from our data, if they occured in-between our weather recording intervals... More about our weather records

Advertising

Allentown Weather History for the Previous 24 Hours

Scroll right to see more
 ConditionsComfort  
Time TempWeatherWind HumidityBarometerVisibility
6:51 AM
Thu, Jun 30
63 °FSunny.No wind84%30.03 "Hg10 mi
5:51 AM60 °FClear.No wind86%30.03 "Hg10 mi
4:51 AM58 °FPassing clouds.5 mph87%30.02 "Hg10 mi
3:51 AM60 °FClear.3 mph86%30.01 "Hg10 mi
2:51 AM59 °FClear.6 mph90%30.01 "Hg10 mi
1:51 AM62 °FClear.3 mph83%29.98 "Hg10 mi
12:51 AM63 °FClear.No wind78%29.98 "Hg10 mi
11:51 PM
Wed, Jun 29
66 °FClear.5 mph73%29.98 "Hg10 mi
10:51 PM67 °FClear.5 mph71%29.97 "Hg10 mi
9:51 PM68 °FClear.No wind63%29.95 "Hg10 mi
8:51 PM72 °FSunny.5 mph55%29.93 "Hg10 mi
7:51 PM76 °FSunny.8 mph48%29.92 "Hg10 mi
6:51 PM78 °FPassing clouds.10 mph46%29.91 "Hg10 mi
5:51 PM79 °FSunny.12 mph44%29.90 "Hg10 mi
4:51 PM81 °FSunny.9 mph39%29.90 "Hg10 mi
3:51 PM81 °FScattered clouds.7 mph41%29.90 "Hg10 mi
2:51 PM78 °FBroken clouds.9 mph50%29.90 "Hg10 mi
1:51 PM79 °FBroken clouds.9 mph48%29.90 "Hg10 mi
12:51 PM77 °FSunny.5 mph52%29.91 "Hg10 mi
11:51 AM76 °FPassing clouds.12 mph58%29.92 "Hg10 mi
10:51 AM75 °FPassing clouds.9 mph60%29.92 "Hg10 mi
9:51 AM73 °FSunny.8 mph66%29.92 "Hg10 mi
8:51 AM71 °FSunny.8 mph68%29.92 "Hg10 mi
Weather by CustomWeather, © 2016

See weather overviewHow to use our weather pages